Lid_Strength_Index
1 1 1 1 1 1 1 1 1 1 3 5 5 6 6 6 6 6 7 7 7 7 6 6 6 6 6 7 7 7 8 8 10 9 8 8 8 7 7 6 5 6 5
1 1 1 1 1 1 1 2 2 4 4 4 4 5 6 6 6 7 8 7 7 6 6 6 6 6 7 6 7 8 8 8 9 10 9 9 8 7 7 7 4 4 5
2 2 2 2 2 2 3 3 3 3 4 5 5 6 6 7 7 8 7 7 6 6 6 6 6 6 6 6 6 7 7 6 7 9 10 9 8 8 7 6 5 5 3
2 2 3 3 3 4 4 5 5 6 7 7 6 6 7 8 7 7 7 7 7 7 6 6 6 6 6 6 6 7 7 7 7 8 9 9 9 7 6 7 7 6 5
2 3 4 4 2 3 4 4 5 6 6 8 8 8 7 8 7 7 7 7 8 8 7 6 6 6 6 6 6 8 8 8 8 9 10 9 8 7 7 6 6 6 6
3 3 3 3 3 3 4 4 5 6 7 7 7 8 8 7 8 8 8 7 7 7 8 7 7 6 6 7 7 7 7 8 8 8 7 7 7 6 6 5 6 8 8
3 4 4 5 6 6 6 6 6 7 7 7 7 7 7 7 9 9 10 8 8 8 8 8 7 7 8 7 8 8 8 8 7 6 7 6 6 5 5 5 6 6 7
5 5 5 5 6 5 6 6 6 6 6 7 7 6 6 8 9 9 9 8 8 8 8 8 9 9 8 8 9 9 9 7 6 5 6 5 4 3 4 4 4 5 7
5 5 5 5 5 5 5 6 5 5 6 6 7 7 8 7 10 9 9 9 9 10 8 9 8 9 8 8 9 9 9 8 5 4 3 3 2 3 4 5 7 6 8
5 5 4 4 4 5 5 6 6 6 6 7 7 7 9 9 10 10 10 11 12 12 11 10 10 10 9 9 10 10 10 8 6 6 5 4 4 4 4 4 5 5 6
4 4 4 4 5 5 6 6 6 7 8 9 10 9 9 11 11 11 11 13 14 14 14 13 13 11 10 10 10 11 10 8 7 6 5 5 4 3 3 4 3 4 6
5 5 5 5 6 7 8 8 9 9 10 11 11 12 11 12 12 12 13 13 13 15 15 14 13 11 11 11 10 9 8 7 6 6 6 5 5 3 3 3 3 4 4
6 7 8 8 8 8 9 9 10 10 12 13 14 13 13 13 13 14 14 14 14 15 14 13 13 11 11 10 8 8 8 8 7 7 7 6 4 3 2 2 2 2 3
8 9 9 9 10 10 11 11 11 13 14 14 14 15 15 14 16 16 16 16 15 15 15 14 14 12 11 9 8 7 6 6 6 6 5 4 4 5 3 2 3 3 4
8 9 11 11 12 12 14 14 15 15 15 15 16 16 17 17 17 17 17 17 17 15 16 15 13 13 12 11 10 9 7 8 8 5 5 4 5 6 3 2 3 4 5
11 12 13 13 13 13 14 15 14 15 15 16 16 17 16 16 17 17 16 15 15 14 15 15 15 14 13 12 11 10 9 9 8 8 4 4 5 4 4 3 3 4 5
14 13 14 14 14 14 15 14 17 16 15 15 16 16 17 17 17 17 16 15 14 13 16 15 15 14 13 12 11 11 11 9 9 8 6 5 5 5 5 4 4 4 4
15 14 14 15 15 15 15 15 15 16 16 16 16 16 17 16 16 16 15 14 15 14 13 13 14 13 12 12 12 12 11 11 10 9 8 5 7 6 7 5 4 4 5
15 15 15 16 17 16 16 16 16 16 16 16 15 16 17 17 16 15 14 16 16 14 13 13 14 13 13 13 13 12 12 11 10 9 9 7 4 4 6 6 5 5 4
18 17 16 16 17 16 16 16 16 17 17 17 17 17 17 18 20 18 17 16 16 14 14 14 14 13 13 13 13 13 12 12 11 10 9 8 8 6 5 7 5 4 4
18 19 18 17 18 18 17 17 17 18 18 17 17 18 19 19 19 17 16 16 15 15 15 14 14 14 14 14 13 14 13 12 12 11 10 9 9 9 7 6 5 4 4
18 18 18 18 18 18 19 18 18 18 17 18 18 17 18 18 16 15 15 15 16 16 14 14 15 14 14 14 14 14 13 13 12 12 11 10 10 9 9 8 6 3 4
18 18 19 18 19 20 19 18 18 18 18 18 18 17 17 16 15 15 16 17 16 15 15 15 15 14 14 15 13 13 13 13 13 12 12 12 11 11 10 10 8 6 4
19 19 19 19 19 20 19 19 19 18 18 18 18 16 15 15 16 17 17 17 17 17 17 15 15 16 15 14 13 13 13 13 12 11 12 14 13 11 10 10 9 8 4
19 19 19 19 19 19 18 18 18 19 18 17 17 16 16 16 16 17 18 17 17 17 15 17 16 14 14 15 14 14 12 11 13 13 13 13 13 13 11 10 9 7 5
19 19 19 19 19 19 19 19 19 18 17 17 17 18 17 17 17 18 17 18 16 17 17 16 16 16 15 14 13 12 13 13 13 12 12 12 12 12 10 9 9 7 5